EN

Hourly Weather Bartodzieje

Today, 27 January, Wednesday

Time Temperature Precipitation Wind Pressure Humidity
00:00 -4°C° 0 mm 5 mps 745 mmHg 85%
01:00 -4°C° 0 mm 6 mps 745 mmHg 85%
02:00 -4°C° 0 mm 6 mps 745 mmHg 87%
03:00 -4°C° 0 mm 5 mps 745 mmHg 89%
04:00 -4°C° 0 mm 5 mps 745 mmHg 90%
05:00 -4°C° 0.1 mm 5 mps 745 mmHg 90%
06:00 -4°C° 0.1 mm 5 mps 745 mmHg 90%
07:00 -4°C° 0 mm 6 mps 745 mmHg 89%
08:00 -4°C° 0.1 mm 6 mps 745 mmHg 89%
09:00 -3°C° 0.1 mm 6 mps 745 mmHg 89%
10:00 -3°C° 0.1 mm 6 mps 745 mmHg 89%
11:00 -3°C° 0.1 mm 6 mps 745 mmHg 87%
12:00 -3°C° 0.1 mm 6 mps 745 mmHg 85%
13:00 -3°C° 0 mm 6 mps 746 mmHg 82%
14:00 -3°C° 0 mm 6 mps 746 mmHg 83%
15:00 -2°C° 0 mm 5 mps 746 mmHg 84%
16:00 -2°C° 0 mm 5 mps 746 mmHg 85%
17:00 -2°C° 0 mm 5 mps 746 mmHg 85%
18:00 -2°C° 0 mm 4 mps 746 mmHg 85%
19:00 -2°C° 0 mm 4 mps 746 mmHg 84%
20:00 -3°C° 0 mm 4 mps 747 mmHg 83%
21:00 -3°C° 0 mm 4 mps 747 mmHg 82%
22:00 -3°C° 0 mm 4 mps 747 mmHg 81%
23:00 -3°C° 0 mm 4 mps 747 mmHg 81%

Tomorrow, 28 January, Thursday

Time Temperature Precipitation Wind Pressure Humidity
00:00 -3°C° 0 mm 4 mps 746 mmHg 80%
01:00 -2°C° 0 mm 3 mps 746 mmHg 80%
02:00 -2°C° 0 mm 3 mps 746 mmHg 83%
03:00 -4°C° 0 mm 3 mps 746 mmHg 86%
04:00 -4°C° 0 mm 3 mps 746 mmHg 88%
05:00 -5°C° 0 mm 3 mps 745 mmHg 90%
06:00 -4°C° 0 mm 2 mps 745 mmHg 91%
07:00 -4°C° 0 mm 2 mps 745 mmHg 93%
08:00 -4°C° 0 mm 2 mps 744 mmHg 88%
09:00 -4°C° 0 mm 3 mps 744 mmHg 84%
10:00 -2°C° 0 mm 3 mps 744 mmHg 80%
11:00 -1°C° 0 mm 3 mps 743 mmHg 78%
12:00 -2°C° 0 mm 4 mps 742 mmHg 76%
13:00 -1°C° 0 mm 5 mps 741 mmHg 75%
14:00 -1°C° 0 mm 5 mps 741 mmHg 79%
15:00 -2°C° 0 mm 4 mps 740 mmHg 84%
16:00 -2°C° 0 mm 4 mps 739 mmHg 89%
17:00 -2°C° 0.1 mm 4 mps 739 mmHg 91%
18:00 -2°C° 0.1 mm 4 mps 739 mmHg 94%
19:00 -1°C° 0.1 mm 5 mps 738 mmHg 96%
20:00 -2°C° 0.3 mm 4 mps 738 mmHg 95%
21:00 -2°C° 0.3 mm 4 mps 738 mmHg 94%
22:00 -2°C° 0.3 mm 4 mps 738 mmHg 92%
23:00 -2°C° 0.1 mm 3 mps 738 mmHg 91%

Day after tomorrow, 29 January, Friday

Time Temperature Precipitation Wind Pressure Humidity
00:00 -2°C° 0.1 mm 3 mps 738 mmHg 89%
01:00 -3°C° 0.1 mm 2 mps 737 mmHg 88%
02:00 -4°C° 0 mm 3 mps 737 mmHg 87%
03:00 -4°C° 0 mm 3 mps 738 mmHg 86%
04:00 -5°C° 0 mm 4 mps 738 mmHg 85%
05:00 -5°C° 0 mm 4 mps 738 mmHg 84%
06:00 -6°C° 0 mm 5 mps 738 mmHg 83%
07:00 -6°C° 0 mm 5 mps 738 mmHg 82%
08:00 -6°C° 0 mm 5 mps 738 mmHg 80%
09:00 -5°C° 0 mm 6 mps 737 mmHg 78%
10:00 -5°C° 0 mm 6 mps 737 mmHg 76%
11:00 -4°C° 0 mm 6 mps 737 mmHg 74%
12:00 -4°C° 0 mm 6 mps 737 mmHg 72%
13:00 -2°C° 0 mm 5 mps 737 mmHg 70%
14:00 -3°C° 0 mm 4 mps 736 mmHg 72%
15:00 -2°C° 0 mm 3 mps 736 mmHg 74%
16:00 -2°C° 0 mm 2 mps 736 mmHg 76%
17:00 -2°C° 0 mm 2 mps 736 mmHg 77%
18:00 0°C° 0 mm 1 mps 735 mmHg 78%
19:00 0°C° 0 mm 1 mps 735 mmHg 78%
20:00 -1°C° 0.1 mm 1 mps 735 mmHg 81%
21:00 -3°C° 0.1 mm 2 mps 734 mmHg 84%
22:00 -3°C° 0.1 mm 2 mps 734 mmHg 86%
23:00 -3°C° 0.4 mm 2 mps 734 mmHg 89%

30 January, Saturday

Time Temperature Precipitation Wind Pressure Humidity
00:00 -3°C° 0.4 mm 2 mps 734 mmHg 92%
01:00 -3°C° 0.4 mm 2 mps 734 mmHg 95%
02:00 -3°C° 0.3 mm 2 mps 734 mmHg 95%
03:00 -1°C° 0.3 mm 1 mps 734 mmHg 95%
04:00 -1°C° 0.3 mm 1 mps 734 mmHg 95%
05:00 -2°C° 0 mm 1 mps 733 mmHg 96%
06:00 -2°C° 0 mm 1 mps 733 mmHg 96%
07:00 -3°C° 0 mm 0 mps 733 mmHg 96%
08:00 -2°C° 0.2 mm 1 mps 733 mmHg 95%
09:00 -2°C° 0.2 mm 1 mps 733 mmHg 95%
10:00 -3°C° 0.2 mm 2 mps 732 mmHg 94%
11:00 -3°C° 1.1 mm 2 mps 732 mmHg 94%
12:00 -3°C° 1.1 mm 2 mps 732 mmHg 95%
13:00 -4°C° 1.1 mm 3 mps 732 mmHg 95%
14:00 -4°C° 0.5 mm 3 mps 733 mmHg 95%
15:00 -4°C° 0.5 mm 4 mps 733 mmHg 95%
16:00 -5°C° 0.5 mm 5 mps 734 mmHg 95%
17:00 -5°C° 0.2 mm 5 mps 735 mmHg 95%
18:00 -5°C° 0.2 mm 5 mps 735 mmHg 95%
19:00 -4°C° 0.2 mm 4 mps 736 mmHg 95%
20:00 -5°C° 0.2 mm 4 mps 737 mmHg 93%
21:00 -7°C° 0.2 mm 4 mps 737 mmHg 90%
22:00 -7°C° 0.2 mm 5 mps 738 mmHg 88%
23:00 -8°C° 0 mm 4 mps 738 mmHg 89%

31 January, Sunday

Time Temperature Precipitation Wind Pressure Humidity
00:00 -9°C° 0 mm 4 mps 739 mmHg 90%
01:00 -9°C° 0 mm 4 mps 739 mmHg 91%
02:00 -10°C° 0 mm 4 mps 739 mmHg 92%
03:00 -10°C° 0 mm 4 mps 740 mmHg 92%
04:00 -10°C° 0 mm 4 mps 740 mmHg 92%
05:00 -10°C° 0 mm 4 mps 740 mmHg 92%
06:00 -10°C° 0 mm 4 mps 741 mmHg 91%
07:00 -11°C° 0 mm 4 mps 741 mmHg 91%
08:00 -10°C° 0 mm 4 mps 741 mmHg 90%
09:00 -9°C° 0 mm 4 mps 741 mmHg 89%
10:00 -8°C° 0 mm 4 mps 742 mmHg 88%
11:00 -6°C° 0 mm 3 mps 742 mmHg 85%
12:00 -5°C° 0 mm 3 mps 741 mmHg 83%
13:00 -4°C° 0 mm 3 mps 741 mmHg 81%
14:00 -4°C° 0 mm 2 mps 741 mmHg 82%
15:00 -5°C° 0 mm 2 mps 741 mmHg 84%
16:00 -5°C° 0 mm 2 mps 741 mmHg 86%
17:00 -6°C° 0 mm 2 mps 741 mmHg 86%
18:00 -6°C° 0 mm 2 mps 741 mmHg 86%
19:00 -7°C° 0 mm 2 mps 742 mmHg 86%
20:00 -7°C° 0 mm 2 mps 741 mmHg 86%
21:00 -8°C° 0 mm 3 mps 741 mmHg 86%
22:00 -8°C° 0 mm 3 mps 741 mmHg 86%
23:00 -9°C° 0 mm 3 mps 740 mmHg 86%

1 February, Monday

Time Temperature Precipitation Wind Pressure Humidity
00:00 -9°C° 0 mm 3 mps 740 mmHg 86%
01:00 -9°C° 0 mm 3 mps 739 mmHg 86%
02:00 -9°C° 0 mm 3 mps 739 mmHg 86%
03:00 -9°C° 0 mm 3 mps 739 mmHg 86%
04:00 -9°C° 0 mm 3 mps 738 mmHg 86%
05:00 -9°C° 0 mm 3 mps 738 mmHg 87%
06:00 -9°C° 0 mm 3 mps 738 mmHg 87%
07:00 -8°C° 0 mm 3 mps 738 mmHg 88%
08:00 -8°C° 0 mm 3 mps 738 mmHg 87%
09:00 -7°C° 0 mm 3 mps 738 mmHg 87%
10:00 -6°C° 0 mm 3 mps 738 mmHg 86%
11:00 -4°C° 0 mm 2 mps 738 mmHg 85%
12:00 -3°C° 0 mm 2 mps 738 mmHg 83%
13:00 -2°C° 0 mm 2 mps 738 mmHg 81%
14:00 -1°C° 0 mm 1 mps 738 mmHg 84%
15:00 -1°C° 0 mm 1 mps 738 mmHg 87%
16:00 -1°C° 0 mm 1 mps 738 mmHg 90%
17:00 -1°C° 0.1 mm 1 mps 738 mmHg 92%
18:00 -1°C° 0.1 mm 1 mps 739 mmHg 95%
19:00 -1°C° 0.1 mm 1 mps 739 mmHg 97%
20:00 -1°C° 0.1 mm 1 mps 740 mmHg 97%
21:00 -1°C° 0.1 mm 1 mps 740 mmHg 97%
22:00 -1°C° 0.1 mm 1 mps 741 mmHg 97%
23:00 -3°C° 0.1 mm 2 mps 742 mmHg 97%
Show more

We Need Your Consent

Meteoprog and our Service Providers may store and access personal data such as cookies, device identifiers or other similar technologies on your device and process such data to personalise content and ads, as well as provide social media features and to analyse the traffic.

  • Store and/or access information on your device

    Cookies, device identifiers or other information can be stored or accessed on your device for the purposes indicated above.

  • Personalised ads and content, ad and content measurement, audience insights, and products development

    Ads and content can be personalised based on a profile. More data can be added to better personalise ads and content. Ad and content performance can be measured. Insights about the audience who saw the ads and content can be derived. Such data can be used to develop or improve user’s experience, systems and software.

By clicking ‘I Agree’ you will allow the use of indicated cookies, device identifiers, web beacons or other similar technologies. Your settings can be changed in the browser on your device.

For certain purposes, legitimate interests may be relied on, rather than consent. You can read more about this in our Privacy and Cookie Policy.